Showing default

ORBCOMM FM 105, 41181

Orbit data source: Space-Track

ORBCOMM FM 105, 41181 is a payload satellite owned by Orbcomm (US) in LEO that was launched on Tue, 22 Dec 2015 UTC via an FALCON 9 launch vehicle from the Air Force Eastern Test Range (AFETR). Payload-class satellites include a variety of spacecraft equipped with specific instruments for various scientific and technological missions. These include communications satellites like Starlink; space stations such as the ISS; scientific satellites like the Hubble; Earth observation satellites from companies like Planet Labs, Umbra, and HawkEye 360; GPS; miniature CubeSats for education and research; and military/defense satellites.

Loading next visibility...
Identifier
41181, 2015-081C
Orbit
LEO
Country
Flag of USUS / ORB
Related business
Manufacturer
SNC Louisville
Mission
Non-operational Commercial Communications
Bus & Motor
SN-100A, Unknown motor
Mass
172 kg wet, 158 kg dry
Launch date (UTC)
2015-12-22 (10 years ago)
Launch vehicle
FALCON 9
Launch site
Air Force Eastern Test Range (AFETR)
Object type
Payload
Rocket body
Debris
Shape & HBR
Box + 1 Pan + 1 Ant, 6.5 m
Radar Cross Section
2.222 m², Medium (>0.1 m² and < 1m²)

Expand to show TLE details & history
Last TLE update: 22 hours ago

TLE from 22 hours ago
0 ORBCOMM FM 105
1 41181U 15081C   25257.40267922  .00000139  00000-0  83801-4 0  9990
2 41181  47.0010 148.4040 0002040 344.6273  15.4545 14.45286750513651
Epoch: 2025-09-14T09:39Z
TLE epoch observation values (Epoch: 2025-09-14T09:39:51.484Z)
Latitude
-0.00003°
Longitude
9.81727°
Altitude
739.899 km
Speed
7.487 km/s
True Right ascension
09h 53m 36s
True Declination
0° 00' 00"
Sunlit
Object was in daylight at epoch
Visualization orbit readout
Latitude
Unknown
Longitude
Unknown
Altitude
Unknown
Speed
Unknown
Apparent Right ascension
Unknown
Apparent Declination
Unknown
Sunlit
N/A
Visualization observer readout
Local Sidereal Time
00:42:22
Azimuth
Unknown
Elevation
Unknown
Doppler factor
Unknown
Orbital elements
Apogee altitude
743.764 km
Perigee altitude
740.859 km
Semi-major axis
7,120.449 km
Eccentricity
0.0002
Inclination
47.001°
RAAN
148.404°
Arg. of periapsis
344.6273°
True anomaly
15.46073°
Mean anomaly
15.4545°
Eccentric anomaly
15.45762°
Mean motion
3.61229 °/min
Orbital period
99.66 mins
BSTAR
0.000083801
Loading maneuver chart data...
Computing Atmospheric mass density...
Loading historical data...
Loading historical data...
Loading historical data...
Loading historical data...
Loading historical data...
Loading historical data...
Loading historical data...

Documentation

Showing up to 5 results
|